EA2DK Weather Reports


time (UTC)temp
C
wind
direction
speed
KPH
gust
KPH
rain 1hr
cm
rain 24hr
cm
rain mn
cm
humidity
%
barometer
mb
20260504044504 14 177 3.2 4.8 0.00 0.00 0.00 63 1015.3
20260504043004 14 151 3.2 9.7 0.00 0.00 0.00 62 1015.2
20260504041504 14 151 3.2 11.3 0.00 0.00 0.00 62 1015.3
20260504040004 14 163 6.4 16.1 0.00 0.00 0.00 62 1015.5
20260504034504 14 200 8.0 16.1 0.00 0.00 0.00 63 1015.4
20260504033004 14 218 8.0 12.9 0.00 0.00 0.00 63 1015.5
20260504031504 14 161 4.8 12.9 0.00 0.00 0.00 63 1015.6
20260504030005 14 216 4.8 12.9 0.00 0.00 0.00 62 1015.7
20260504023004 14 175 3.2 4.8 0.00 0.00 0.00 61 1015.7
20260504021504 14 192 4.8 8.0 0.00 0.00 0.00 61 1015.7
20260504020004 14 194 4.8 8.0 0.00 0.00 0.00 61 1015.6
20260504013004 14 195 4.8 9.7 0.00 0.00 0.00 62 1015.7
20260504010004 14 176 4.8 8.0 0.00 0.00 0.00 61 1015.6
20260504003004 15 187 3.2 19.3 0.00 0.00 0.00 60 1015.4
20260504001504 15 168 3.2 9.7 0.00 0.00 0.00 60 1015.3
20260504000004 15 203 6.4 16.1 0.00 0.00 0.00 59 1015.3
20260503234504 15 209 9.7 22.5 0.00 0.00 0.00 60 1015.5
20260503233004 15 229 11.3 24.1 0.00 0.00 0.00 59 1015.3
20260503231504 15 257 11.3 27.4 0.00 0.00 0.00 64 1015.6
20260503224504 15 275 3.2 14.5 0.00 0.00 0.00 67 1015.2
20260503223004 15 202 0.0 4.8 0.00 0.00 0.00 67 1014.8
20260503221504 15 202 1.6 4.8 0.00 0.00 0.00 66 1015.0
20260503220004 15 214 1.6 4.8 0.00 0.00 0.00 66 1015.0
20260503210005 16 216 1.6 4.8 0.00 0.00 0.00 64 1015.0
20260503201504 16 272 1.6 4.8 0.00 0.00 0.00 63 1015.1
20260503200005 16 272 1.6 4.8 0.00 0.00 0.00 63 1015.0
20260503194504 16 272 1.6 4.8 0.00 0.00 0.00 63 1014.9
20260503193004 16 276 0.0 12.9 0.00 0.00 0.00 63 1014.7
20260503190004 17 280 9.7 14.5 0.00 0.00 0.00 62 1014.3
20260503184504 17 271 0.0 9.7 0.00 0.00 0.00 63 1014.1
20260503183004 17 273 0.0 4.8 0.00 0.00 0.00 62 1013.7
20260503181505 17 271 1.6 4.8 0.00 0.00 0.00 62 1013.6
20260503180004 18 271 0.0 4.8 0.00 0.00 0.00 61 1013.4
20260503174504 18 311 3.2 4.8 0.00 0.00 0.00 59 1013.2
20260503173004 18 312 0.0 4.8 0.00 0.00 0.00 59 1013.2
20260503171505 18 316 3.2 9.7 0.00 0.00 0.00 58 1013.2
20260503081504 17 115 3.2 4.8 0.00 0.00 0.00 59 1016.1
20260503071504 15 157 0.0 3.2 0.00 0.00 0.00 68 1016.5